FW5816 Weather Reports


Display with metric or nautical units.
time (UTC)temp
F
wind
direction
speed
MPH
gust
MPH
rain 1hr
in
rain 24hr
in
rain mn
in
humidity
%
barometer
mb
20260506025511 60 310 4.0 7.0 0.01 0.58 0.58 95 1007.0
20260506025017 60 241 1.0 6.0 0.00 0.57 0.57 94 1006.9
20260506024536 60 290 2.0 12.0 0.00 0.57 0.57 94 1007.0
20260506024011 60 234 4.0 15.0 0.00 0.57 0.57 94 1007.1
20260506023513 60 134 4.0 15.0 0.00 0.57 0.57 94 1007.2
20260506023050 60 260 6.0 15.0 0.00 0.57 0.57 94 1007.3
20260506022513 60 243 2.0 8.0 0.00 0.57 0.57 95 1007.2
20260506022021 60 219 0.0 3.0 0.00 0.57 0.57 95 1007.3
20260506021552 60 158 0.0 3.0 0.00 0.57 0.57 95 1007.1
20260506021018 60 262 0.0 2.0 0.00 0.57 0.57 95 1007.0
20260506020513 60 0 0.0 3.0 0.00 0.57 0.57 94 1007.2
20260506020032 60 0 0.0 3.0 0.00 0.57 0.57 94 1007.0
20260506015513 60 216 1.0 3.0 0.00 0.57 0.57 94 1006.8
20260506015015 60 248 1.0 3.0 0.00 0.57 0.57 94 1006.8
20260506014532 60 248 1.0 2.0 0.00 0.57 0.57 94 1006.7
20260506014013 60 282 1.0 2.0 0.00 0.57 0.57 94 1006.5
20260506013511 60 287 1.0 3.0 0.00 0.57 0.57 94 1006.5
20260506013035 60 290 1.0 3.0 0.00 0.57 0.57 94 1006.5
20260506012513 60 271 1.0 3.0 0.00 0.57 0.57 94 1006.4
20260506012012 60 229 0.0 2.0 0.00 0.57 0.57 94 1006.4
20260506011531 60 272 0.0 1.0 0.00 0.57 0.57 94 1006.4
20260506011013 60 156 0.0 1.0 0.00 0.57 0.57 93 1006.3
20260506010511 60 156 0.0 1.0 0.00 0.57 0.57 93 1006.2
20260506010032 60 148 0.0 1.0 0.01 0.57 0.57 93 1006.3
20260506005514 60 148 0.0 1.0 0.01 0.57 0.57 93 1006.3
20260506005014 60 0 0.0 3.0 0.01 0.57 0.57 93 1006.2
20260506004534 60 149 0.0 3.0 0.01 0.57 0.57 93 1006.2
20260506004016 60 147 1.0 3.0 0.01 0.57 0.57 92 1006.2
20260506003518 60 219 1.0 4.0 0.01 0.57 0.57 92 1006.3
20260506003032 60 212 1.0 4.0 0.01 0.57 0.57 92 1006.4
20260506002512 60 141 0.0 5.0 0.02 0.57 0.57 92 1006.4
20260506002020 60 127 1.0 5.0 0.02 0.57 0.57 92 1006.5
20260506001532 60 165 1.0 6.0 0.02 0.57 0.57 92 1006.6
20260506001013 60 215 2.0 6.0 0.03 0.57 0.57 93 1006.5
20260506000514 60 142 0.0 1.0 0.05 0.57 0.57 93 1006.6
20260506000030 61 0 0.0 1.0 0.06 0.56 0.56 93 1006.5
20260505235513 61 0 0.0 1.0 0.07 0.56 0.56 93 1006.4
20260505235012 61 0 0.0 1.0 0.09 0.56 0.56 93 1006.6
20260505234532 61 0 0.0 1.0 0.10 0.56 0.56 93 1006.6
20260505234016 61 0 0.0 1.0 0.10 0.56 0.56 93 1006.4
20260505233514 61 0 0.0 1.0 0.12 0.56 0.56 93 1006.5
20260505233035 61 176 0.0 1.0 0.13 0.56 0.56 93 1006.6
20260505232512 61 176 0.0 1.0 0.13 0.55 0.55 93 1006.6
20260505232015 61 0 0.0 0.0 0.15 0.55 0.55 93 1006.8
20260505231546 61 0 0.0 0.0 0.15 0.54 0.54 92 1006.9
20260505231013 61 0 0.0 2.0 0.14 0.52 0.52 92 1006.7
20260505230512 61 176 0.0 3.0 0.12 0.51 0.51 91 1006.9
20260505230030 62 166 1.0 3.0 0.11 0.50 0.50 91 1007.2
20260505225514 62 144 0.0 5.0 0.10 0.49 0.49 92 1006.8
20260505225011 62 0 2.0 5.0 0.08 0.47 0.47 91 1006.9
20260505224532 62 0 1.0 4.0 0.07 0.46 0.46 92 1007.2
20260505224012 62 165 1.0 2.0 0.07 0.46 0.46 93 1007.2
20260505223514 62 256 0.0 2.0 0.05 0.44 0.44 93 1007.5
20260505223031 62 212 0.0 2.0 0.04 0.43 0.43 93 1007.1
20260505222517 63 212 0.0 2.0 0.03 0.42 0.42 93 1007.2
20260505222018 63 143 0.0 2.0 0.01 0.40 0.40 93 1007.2
20260505221534 63 148 1.0 2.0 0.00 0.39 0.39 93 1006.9
20260505221014 63 148 0.0 3.0 0.00 0.39 0.39 94 1006.9
20260505220514 63 148 0.0 3.0 0.00 0.39 0.39 95 1006.7
20260505220034 63 139 0.0 3.0 0.00 0.39 0.39 95 1006.7
20260505215511 62 121 1.0 3.0 0.00 0.39 0.39 95 1006.8
20260505215013 62 65 0.0 3.0 0.00 0.39 0.39 95 1006.9
20260505214548 62 0 2.0 3.0 0.00 0.39 0.39 94 1007.0
20260505214018 62 79 1.0 3.0 0.00 0.39 0.39 95 1007.0
20260505213514 62 53 1.0 2.0 0.00 0.39 0.39 95 1007.0
20260505213038 62 249 0.0 1.0 0.00 0.39 0.39 94 1007.2
20260505212514 62 250 0.0 1.0 0.00 0.39 0.39 94 1007.3
20260505212015 62 0 0.0 1.0 0.00 0.39 0.39 94 1007.3
20260505211530 62 250 0.0 1.0 0.00 0.39 0.39 94 1007.3
20260505211013 62 0 0.0 1.0 0.00 0.39 0.39 94 1007.5
20260505210512 62 250 0.0 1.0 0.00 0.39 0.39 94 1007.5
20260505210031 62 0 0.0 1.0 0.00 0.39 0.39 94 1007.7
20260505205516 62 0 0.0 1.0 0.01 0.39 0.39 95 1007.7
20260505205013 62 0 0.0 1.0 0.01 0.39 0.39 94 1007.7
20260505204531 62 249 0.0 1.0 0.01 0.39 0.39 94 1007.9
20260505204013 62 250 0.0 1.0 0.01 0.39 0.39 94 1007.9
20260505203510 62 0 0.0 1.0 0.02 0.39 0.39 94 1008.0
20260505203050 62 250 0.0 1.0 0.03 0.39 0.39 94 1008.1
20260505202510 62 249 0.0 1.0 0.04 0.39 0.39 94 1008.1
20260505202016 62 0 0.0 1.0 0.04 0.39 0.39 94 1008.1
20260505201540 62 0 0.0 2.0 0.04 0.39 0.39 94 1008.2
20260505201014 61 249 0.0 2.0 0.08 0.39 0.39 93 1008.5
20260505200515 62 249 0.0 1.0 0.09 0.39 0.39 93 1008.7
20260505200032 62 0 0.0 1.0 0.10 0.39 0.39 93 1008.6
20260505195511 62 250 0.0 2.0 0.11 0.38 0.38 92 1008.6
20260505195011 61 249 0.0 2.0 0.12 0.38 0.38 92 1008.7
20260505194530 62 0 0.0 3.0 0.12 0.38 0.38 93 1008.6
20260505194017 61 229 1.0 3.0 0.13 0.38 0.38 92 1008.8
20260505193512 61 221 1.0 3.0 0.14 0.37 0.37 92 1008.8
20260505193033 61 0 0.0 4.0 0.19 0.36 0.36 92 1008.9
20260505192513 62 241 1.0 4.0 0.23 0.35 0.35 92 1008.9
20260505192015 62 131 1.0 3.0 0.29 0.35 0.35 92 1008.8
20260505191529 62 248 1.0 5.0 0.32 0.34 0.34 92 1008.9
20260505191014 62 273 2.0 5.0 0.30 0.31 0.31 91 1009.1
20260505190512 62 245 1.0 3.0 0.30 0.30 0.30 91 1009.0
20260505190034 62 259 0.0 4.0 0.29 0.29 0.29 91 1008.9
20260505185518 62 247 1.0 6.0 0.27 0.27 0.27 91 1009.1
20260505185012 62 271 1.0 6.0 0.26 0.26 0.26 90 1009.3
20260505184536 62 285 2.0 6.0 0.26 0.26 0.26 90 1009.3
20260505184015 62 280 2.0 10.0 0.24 0.24 0.24 89 1009.4
20260505183514 62 274 4.0 11.0 0.23 0.23 0.23 88 1009.6
20260505183029 63 274 5.0 11.0 0.16 0.16 0.16 86 1009.5
20260505182513 64 277 4.0 13.0 0.11 0.11 0.11 84 1009.4
20260505182015 65 283 5.0 17.0 0.06 0.06 0.06 80 1009.3
20260505181535 67 265 6.0 17.0 0.02 0.02 0.02 76 1009.3
20260505181010 68 276 5.0 12.0 0.00 0.00 0.00 74 1009.2
20260505180511 69 238 5.0 17.0 0.00 0.00 0.00 72 1009.3
20260505180033 69 259 5.0 17.0 0.00 0.00 0.00 70 1009.1
20260505175512 70 293 7.0 15.0 0.00 0.00 0.00 70 1009.0
20260505175010 70 270 5.0 15.0 0.00 0.00 0.00 70 1009.1
20260505174540 70 316 9.0 15.0 0.00 0.00 0.00 68 1009.0
20260505174013 70 158 6.0 15.0 0.00 0.00 0.00 69 1008.9
20260505173511 70 175 7.0 15.0 0.00 0.00 0.00 68 1008.8
20260505173030 70 255 5.0 14.0 0.00 0.00 0.00 68 1008.9
20260505172509 70 188 5.0 15.0 0.00 0.00 0.00 69 1009.2
20260505172015 69 138 5.0 15.0 0.00 0.00 0.00 70 1009.3
20260505171533 68 129 4.0 12.0 0.00 0.00 0.00 70 1009.5
20260505171010 68 267 4.0 12.0 0.00 0.00 0.00 70 1009.6
20260505170513 68 257 3.0 11.0 0.00 0.00 0.00 70 1009.7
20260505170035 68 185 3.0 18.0 0.00 0.00 0.00 70 1009.6
20260505165513 68 141 4.0 18.0 0.00 0.00 0.00 70 1009.8
20260505165013 68 181 7.0 18.0 0.00 0.00 0.00 70 1009.8
20260505164529 68 228 6.0 15.0 0.00 0.00 0.00 70 1009.7
20260505164012 68 149 4.0 12.0 0.00 0.00 0.00 70 1009.9
20260505163510 68 257 4.0 11.0 0.00 0.00 0.00 70 1010.0
20260505163034 67 231 5.0 14.0 0.00 0.00 0.00 70 1010.0
20260505162514 67 277 3.0 14.0 0.00 0.00 0.00 70 1009.9
20260505162014 67 184 4.0 13.0 0.00 0.00 0.00 70 1010.0
20260505161530 67 312 5.0 13.0 0.00 0.00 0.00 70 1010.0
20260505161010 67 178 4.0 12.0 0.00 0.00 0.00 70 1010.0
20260505160510 67 239 4.0 12.0 0.00 0.00 0.00 70 1010.0
20260505153035 66 234 5.0 15.0 0.00 0.00 0.00 70 1009.9
20260505152513 65 215 4.0 11.0 0.00 0.00 0.00 71 1009.9
20260505152017 65 167 5.0 13.0 0.00 0.00 0.00 70 1009.9
20260505151545 65 158 3.0 13.0 0.00 0.00 0.00 71 1009.8
20260505151013 65 140 5.0 12.0 0.00 0.00 0.00 70 1009.8
20260505150515 65 240 4.0 12.0 0.00 0.00 0.00 71 1009.9
20260505140513 64 165 2.0 8.0 0.00 0.00 0.00 73 1009.6
20260505125014 61 143 2.0 7.0 0.00 0.04 0.00 81 1009.7
20260505124532 61 185 2.0 6.0 0.00 0.04 0.00 81 1009.8
20260505124010 61 153 3.0 5.0 0.00 0.04 0.00 81 1009.9
20260505123510 60 168 2.0 5.0 0.00 0.04 0.00 81 1010.0
20260505123030 60 139 1.0 4.0 0.00 0.04 0.00 81 1010.2
20260505122510 60 142 1.0 4.0 0.00 0.04 0.00 81 1010.3
20260505122010 60 111 1.0 4.0 0.00 0.04 0.00 81 1010.3
20260505121531 60 134 1.0 3.0 0.00 0.04 0.00 80 1010.2
20260505121013 60 136 0.0 2.0 0.00 0.04 0.00 81 1010.2
20260505120512 60 91 0.0 2.0 0.00 0.04 0.00 81 1010.0
20260505120038 60 138 0.0 3.0 0.00 0.04 0.00 81 1010.0
20260505115512 60 96 0.0 3.0 0.00 0.05 0.00 81 1010.1
20260505115009 60 110 1.0 3.0 0.00 0.05 0.00 81 1009.9
20260505114530 60 123 0.0 2.0 0.00 0.05 0.00 81 1009.8
20260505114011 60 84 1.0 2.0 0.00 0.05 0.00 81 1009.8
20260505113514 60 72 1.0 3.0 0.00 0.05 0.00 81 1009.8
20260505113030 60 75 1.0 3.0 0.00 0.05 0.00 81 1009.8
20260505112516 60 63 2.0 3.0 0.00 0.05 0.00 81 1009.9
20260505112011 60 86 1.0 5.0 0.00 0.05 0.00 80 1009.9
20260505111532 60 0 1.0 5.0 0.00 0.05 0.00 80 1010.0
20260505111013 60 146 1.0 5.0 0.00 0.05 0.00 80 1010.0
20260505110514 60 66 0.0 5.0 0.00 0.05 0.00 79 1010.1
20260505102015 62 46 5.0 12.0 0.00 0.05 0.00 74 1010.2
20260505101532 63 24 4.0 18.0 0.00 0.05 0.00 73 1010.1
20260505101010 63 328 6.0 18.0 0.00 0.05 0.00 72 1010.3
20260505100516 64 343 10.0 18.0 0.00 0.05 0.00 70 1010.1
20260505100034 64 312 3.0 8.0 0.00 0.05 0.00 67 1010.0
20260505095510 64 316 2.0 5.0 0.00 0.09 0.00 66 1010.0
20260505095012 64 340 3.0 6.0 0.00 0.09 0.00 66 1009.9
20260505094530 64 281 3.0 8.0 0.00 0.09 0.00 65 1009.5
20260505094013 64 285 3.0 8.0 0.00 0.09 0.00 65 1009.2
20260505093510 64 281 3.0 8.0 0.00 0.09 0.00 65 1009.0
20260505093040 64 284 3.0 8.0 0.00 0.09 0.00 65 1008.7
20260505092512 64 153 5.0 8.0 0.00 0.09 0.00 65 1008.6
20260505092011 64 261 3.0 9.0 0.00 0.09 0.00 65 1008.7
20260505091532 64 217 4.0 9.0 0.00 0.09 0.00 64 1008.7
20260505091014 64 260 3.0 11.0 0.00 0.09 0.00 64 1008.6
20260505090512 64 272 4.0 11.0 0.00 0.09 0.00 64 1008.6
20260505090038 64 211 5.0 11.0 0.00 0.09 0.00 64 1008.5
20260505085510 64 270 2.0 8.0 0.00 0.17 0.00 64 1008.4
20260505085016 64 143 3.0 8.0 0.00 0.17 0.00 64 1008.2
20260505084532 64 248 4.0 9.0 0.00 0.17 0.00 64 1008.2
20260505084012 64 167 3.0 9.0 0.00 0.17 0.00 64 1008.2
20260505083513 64 191 3.0 10.0 0.00 0.17 0.00 64 1008.0
20260505083033 64 262 5.0 11.0 0.00 0.17 0.00 63 1008.1
20260505082511 64 209 3.0 11.0 0.00 0.17 0.00 64 1008.1
20260505082010 64 146 5.0 11.0 0.00 0.17 0.00 63 1007.9
20260505081532 65 245 3.0 11.0 0.00 0.17 0.00 63 1007.9
20260505081012 65 242 4.0 11.0 0.00 0.17 0.00 63 1007.9
20260505080510 65 253 4.0 9.0 0.00 0.17 0.00 63 1007.9
20260505080030 65 250 3.0 9.0 0.00 0.17 0.00 63 1007.8
20260505075511 65 255 3.0 9.0 0.00 0.17 0.00 63 1007.8
20260505075012 65 257 4.0 12.0 0.00 0.17 0.00 62 1007.7
20260505074528 65 220 4.0 13.0 0.00 0.17 0.00 62 1007.9
20260505074012 65 172 5.0 16.0 0.00 0.17 0.00 62 1007.9
20260505073511 66 212 7.0 16.0 0.00 0.17 0.00 61 1007.7
20260505073037 66 249 3.0 10.0 0.00 0.17 0.00 61 1007.7
20260505072511 66 302 4.0 10.0 0.00 0.17 0.00 61 1007.8
20260505072012 66 216 5.0 12.0 0.00 0.17 0.00 61 1007.7
20260505071529 66 179 4.0 12.0 0.00 0.17 0.00 60 1007.7
20260505071011 66 235 3.0 12.0 0.00 0.17 0.00 61 1007.7
20260505070512 66 208 5.0 12.0 0.00 0.17 0.00 60 1007.7
20260505070032 67 200 4.0 12.0 0.00 0.17 0.00 60 1007.6
20260505065511 67 209 6.0 15.0 0.00 0.17 0.00 60 1007.5
20260505065013 67 302 6.0 16.0 0.00 0.17 0.00 59 1007.6
20260505064531 67 298 5.0 16.0 0.00 0.17 0.00 59 1007.5
20260505064009 67 161 5.0 16.0 0.00 0.17 0.00 59 1007.6
20260505063510 67 293 6.0 15.0 0.00 0.17 0.00 59 1007.6
20260505063030 67 141 8.0 15.0 0.00 0.17 0.00 59 1007.5
20260505062519 67 248 6.0 13.0 0.00 0.17 0.00 59 1007.6
20260505062012 67 255 6.0 13.0 0.00 0.17 0.00 59 1007.5
20260505061531 67 233 5.0 11.0 0.00 0.17 0.00 59 1007.5
20260505061013 67 193 5.0 12.0 0.00 0.17 0.00 59 1007.6
20260505060510 67 198 4.0 15.0 0.00 0.17 0.00 59 1007.5
20260505060034 67 245 5.0 15.0 0.00 0.17 0.00 59 1007.4
20260505055510 67 212 4.0 17.0 0.00 0.17 0.00 59 1007.5
20260505055013 67 224 6.0 17.0 0.00 0.17 0.00 59 1007.5
20260505054537 67 250 6.0 14.0 0.00 0.17 0.00 60 1007.5
20260505054014 66 183 4.0 14.0 0.00 0.17 0.00 60 1007.5
20260505053513 66 166 5.0 14.0 0.00 0.17 0.00 60 1007.4
20260505053041 66 202 4.0 11.0 0.00 0.17 0.00 60 1007.5
20260505052508 66 177 3.0 11.0 0.00 0.17 0.00 60 1007.4
20260505052015 66 194 4.0 11.0 0.00 0.17 0.00 60 1007.3
20260505051535 66 170 5.0 11.0 0.00 0.17 0.00 60 1007.3
20260505051009 67 213 3.0 8.0 0.00 0.17 0.00 60 1007.2
20260505050513 67 191 2.0 8.0 0.00 0.17 0.00 60 1007.4
20260505041532 69 184 3.0 8.0 0.00 0.17 0.00 56 1007.8
20260505041009 69 179 3.0 11.0 0.00 0.17 0.00 56 1007.9
20260505040509 69 235 4.0 14.0 0.00 0.17 0.00 55 1007.8
20260505040030 69 172 5.0 14.0 0.00 0.17 0.00 55 1007.8
20260505035513 70 278 5.0 12.0 0.00 0.17 0.17 55 1007.9
20260505035009 70 218 5.0 13.0 0.00 0.17 0.17 55 1007.8
20260505034532 70 274 5.0 13.0 0.00 0.17 0.17 55 1007.9
20260505034012 70 271 4.0 9.0 0.00 0.17 0.17 55 1008.0
20260505033514 70 203 4.0 10.0 0.00 0.17 0.17 55 1007.9
20260505033045 70 292 4.0 11.0 0.00 0.17 0.17 55 1007.8
20260505032511 70 197 4.0 11.0 0.00 0.17 0.17 55 1007.8
20260505032011 70 257 4.0 10.0 0.00 0.17 0.17 55 1007.7
20260505031532 70 271 5.0 10.0 0.00 0.17 0.17 55 1007.5
20260505031010 70 165 5.0 10.0 0.00 0.17 0.17 55 1007.6
20260505030510 70 228 5.0 11.0 0.00 0.17 0.17 55 1007.4
20260505030030 70 269 4.0 11.0 0.00 0.17 0.17 55 1007.3